Theta_e
288 289 289 289 289 288 286 286 286 284 283 283 282 282 281 280 280 279 278 278 277 277 277 277 277 278 276 276 278 277 276 275 271 274 276 276 276 276 277 277 278 278 278
289 288 288 288 287 287 286 285 285 284 283 283 282 281 281 280 280 279 278 278 277 276 276 276 276 277 275 275 275 274 274 274 273 271 274 274 275 276 276 276 277 278 278
287 287 286 286 286 286 286 285 284 283 282 282 281 280 280 280 279 278 278 277 276 276 275 275 274 274 274 274 273 273 273 274 273 272 272 274 275 275 275 276 276 277 278
287 286 286 286 286 287 287 285 283 283 282 281 281 280 280 279 278 278 277 276 275 275 275 275 274 274 274 273 273 273 274 273 273 272 272 273 274 276 276 274 274 276 276
287 286 286 287 287 286 285 284 283 282 282 281 280 279 278 278 277 277 276 275 274 274 274 275 274 274 276 276 274 273 273 271 272 272 272 273 273 274 273 275 274 274 275
287 287 287 286 285 285 284 283 282 281 280 280 278 278 276 277 281 282 277 275 274 274 273 274 274 275 275 278 279 280 278 272 270 271 272 272 273 274 275 274 273 272 270
286 287 286 285 284 284 283 281 280 279 279 278 278 277 276 276 283 283 280 275 274 274 274 274 275 275 275 275 277 278 278 279 279 276 273 273 273 274 275 273 273 273 272
285 286 284 284 283 282 280 279 279 279 278 277 276 276 275 275 284 283 280 275 274 274 275 275 275 275 275 274 274 274 274 275 276 276 275 275 276 277 276 276 276 273 272
281 281 280 280 280 278 278 277 278 278 277 277 276 276 275 276 284 283 280 275 275 275 275 275 275 274 276 277 276 273 273 275 278 279 279 280 280 280 279 273 269 267 266
280 280 278 279 278 277 278 276 277 277 277 276 275 276 275 276 283 283 280 276 274 274 274 275 276 275 277 278 273 270 271 272 273 271 273 275 274 273 274 272 270 266 266
277 276 275 276 278 278 277 276 276 276 275 275 274 274 275 276 280 283 282 275 274 273 272 273 274 278 278 277 278 273 271 274 272 269 268 268 269 270 270 271 271 270 267
274 274 274 273 273 276 275 274 274 274 273 273 272 272 273 275 279 283 282 278 277 272 272 273 273 276 276 277 275 275 275 275 265 264 264 265 267 268 270 271 272 272 272
275 275 275 276 275 275 273 273 273 273 273 271 271 270 270 271 276 282 282 279 278 273 274 274 275 276 275 273 273 272 271 266 265 263 264 266 268 269 270 270 270 271 271
277 276 275 275 274 274 274 274 274 273 272 272 271 270 270 269 272 276 277 279 278 275 275 273 272 271 270 270 268 269 268 267 266 265 265 267 268 267 267 268 267 268 267
278 277 274 274 273 273 273 273 274 274 275 273 272 271 270 269 271 276 277 276 275 272 266 264 264 265 265 265 265 265 266 265 265 265 265 265 265 266 266 267 267 267 266
273 277 274 274 273 273 272 272 278 277 278 279 278 274 273 275 276 278 279 278 277 275 263 263 263 263 263 264 263 263 264 264 265 264 264 264 264 264 265 265 267 266 266
269 273 276 273 272 271 271 271 270 275 278 279 279 278 276 276 277 278 278 278 277 273 262 263 263 262 262 262 262 262 262 263 264 263 263 263 263 263 263 264 265 266 265
267 270 274 274 272 271 271 270 271 271 270 273 278 277 277 277 278 278 278 278 271 264 260 260 260 259 259 260 260 260 260 260 261 261 261 261 261 261 262 263 264 265 264
266 267 272 273 271 271 270 270 270 270 271 272 273 276 276 278 279 279 280 271 263 260 258 258 257 257 258 258 257 256 256 256 257 257 258 259 260 261 262 263 265 264 264
263 266 269 272 270 269 269 269 269 270 271 271 272 272 274 276 275 272 264 263 262 260 258 257 255 254 253 254 253 252 252 253 254 256 258 259 260 262 262 264 264 263 263
263 265 268 270 269 269 268 268 269 270 270 270 271 273 276 273 267 262 261 260 259 258 256 255 253 251 251 250 249 248 249 253 254 254 257 258 260 261 262 265 264 263 263
263 264 268 268 268 267 268 269 270 269 269 269 268 271 276 264 262 260 259 258 256 255 253 253 252 250 250 249 248 246 249 250 252 253 257 258 259 261 264 264 263 262 262
263 265 267 267 266 267 268 268 268 268 264 265 268 267 263 261 259 258 257 256 254 252 251 250 249 249 248 248 247 248 249 251 252 254 256 257 259 262 264 262 262 261 261
265 266 265 265 265 266 265 265 265 264 264 265 266 261 260 259 258 257 256 254 253 251 250 249 248 248 247 247 247 248 249 251 253 254 256 258 262 264 263 261 261 261 261
265 264 264 264 264 263 263 262 262 263 263 261 260 259 258 257 256 255 254 253 253 252 250 249 249 249 249 249 249 248 250 255 255 257 260 264 264 262 261 260 260 260 261
262 262 262 262 261 261 261 261 261 261 260 259 258 257 257 257 255 254 253 253 252 252 251 251 250 250 249 249 249 252 257 261 262 264 268 268 260 262 261 259 259 260 260
Wind_Speed
10 12 13 13 14 12 13 14 14 12 14 15 15 15 15 15 14 13 11 11 11 9 6 8 7 6 4 4 3 3 4 4 7 5 4 3 4 7 7 7 9 11 11
12 13 14 11 12 14 14 14 14 15 14 15 15 15 16 16 15 16 14 12 12 11 10 8 7 6 6 5 4 5 4 3 5 13 6 7 5 9 9 11 10 9 11
10 12 10 11 13 17 17 15 15 15 15 14 15 17 17 17 16 15 15 13 13 11 10 9 8 8 6 5 4 5 5 6 6 8 9 6 7 8 10 11 11 11 10
11 12 14 16 18 18 15 15 15 15 15 16 16 16 16 16 16 16 14 12 10 9 9 9 9 9 8 7 6 6 6 5 7 9 9 8 8 8 9 11 12 10 12
12 13 17 18 15 14 14 14 14 16 15 16 15 14 14 14 13 16 14 13 12 10 8 8 7 7 12 10 5 4 5 5 6 8 10 10 8 9 11 11 14 14 13
10 14 14 12 13 15 14 14 14 14 13 14 14 16 15 11 24 27 19 13 12 11 10 8 7 8 7 10 11 13 11 5 7 7 8 12 13 11 11 11 13 15 17
12 12 10 10 12 13 12 13 14 15 14 14 14 14 15 13 28 28 25 12 12 11 11 10 8 6 9 7 11 12 11 13 16 11 13 13 16 13 15 16 16 17 17
14 10 8 10 12 12 13 14 13 13 15 15 15 15 14 13 30 29 27 14 12 12 12 12 10 9 8 7 7 7 8 9 10 9 12 14 14 14 14 16 17 19 17
9 5 4 6 8 9 10 12 12 12 12 13 14 16 16 14 30 30 24 13 12 11 10 10 10 9 12 13 7 6 7 8 12 19 22 25 28 28 24 15 13 13 17
10 8 2 5 6 9 8 8 8 9 9 9 12 13 15 15 29 30 22 11 13 11 9 9 14 10 14 13 5 5 6 6 7 9 10 12 16 17 23 14 11 13 14
8 6 5 2 3 5 8 7 8 9 8 10 11 10 12 15 20 30 28 12 11 11 10 9 8 16 12 9 10 5 4 7 8 4 6 8 10 11 10 10 12 13 15
3 4 4 1 1 4 7 6 8 9 10 10 10 8 7 10 19 28 28 19 20 11 10 8 7 13 12 10 4 6 9 9 2 4 6 8 9 9 10 11 14 16 15
4 3 3 3 3 5 7 9 7 8 8 9 10 9 7 6 8 26 27 23 22 10 8 12 14 13 9 4 5 6 2 2 3 5 7 9 9 10 13 14 15 19 19
10 7 5 6 6 5 5 6 7 10 9 9 10 10 10 9 9 10 11 14 19 12 16 8 9 6 6 4 1 2 2 4 4 6 8 9 10 9 11 10 13 14 15
14 9 7 6 8 7 7 8 9 8 10 11 11 11 14 14 14 18 17 11 10 13 9 5 2 3 3 1 1 3 4 3 5 6 8 8 9 10 11 11 13 15 15
17 11 7 6 7 7 7 6 17 14 18 19 18 15 9 13 28 29 26 24 24 22 6 5 4 5 4 3 2 4 4 4 5 6 8 7 8 10 13 13 13 14 16
16 15 10 8 7 8 7 8 8 12 16 21 21 21 20 18 30 31 29 26 24 20 4 6 7 6 5 4 3 4 5 5 8 7 7 8 9 10 14 13 14 14 17
17 20 14 9 9 8 8 8 8 9 10 9 18 17 23 27 31 31 30 28 14 8 3 7 7 6 5 5 3 4 4 5 6 8 7 8 9 10 12 14 14 17 17
14 12 13 8 9 9 8 8 8 8 9 10 8 16 20 29 31 31 31 10 10 9 6 6 5 5 4 4 3 3 3 4 7 7 6 8 9 10 13 14 15 22 23
13 19 18 9 7 7 8 9 9 10 10 10 12 12 13 18 17 12 7 9 8 7 7 6 5 4 3 3 2 2 3 4 5 6 7 8 9 9 12 15 16 17 18
11 12 17 9 8 9 9 10 9 10 10 10 10 13 23 15 10 11 9 7 6 6 6 6 5 4 3 3 2 4 4 4 6 6 7 9 9 10 12 13 15 16 18
11 11 10 8 7 9 8 9 9 10 11 11 9 12 24 9 10 10 8 6 4 3 3 5 4 4 4 3 4 3 3 5 6 5 8 9 10 10 11 13 15 16 17
10 11 7 6 7 9 9 8 9 10 8 9 12 9 9 8 8 9 8 5 4 3 3 3 3 3 2 3 4 4 5 7 6 5 9 10 10 11 11 13 15 16 17
10 8 8 8 8 8 7 8 8 10 10 10 8 8 8 8 9 9 7 5 4 3 3 3 2 3 2 4 4 4 7 7 6 8 11 11 12 11 10 12 14 19 18
6 7 7 7 8 7 8 8 8 9 9 8 8 8 8 8 8 7 6 4 3 3 3 2 2 4 6 7 7 8 9 13 10 12 10 14 10 13 10 11 14 16 20
7 7 7 7 7 8 8 9 9 9 9 8 8 8 8 8 7 6 5 4 3 2 2 2 3 5 7 6 8 10 12 15 12 15 11 11 7 8 8 11 16 14 18
Wind_Direction
197 203 197 196 197 192 195 189 183 170 172 175 180 180 179 180 177 178 183 175 182 176 170 177 178 166 179 184 184 182 200 193 255 257 249 290 277 287 290 284 283 284 285
195 200 207 200 193 195 195 190 181 182 180 179 175 180 184 182 182 183 181 181 182 183 180 168 175 173 183 179 184 203 213 219 256 283 285 279 284 294 290 289 286 281 279
195 205 195 196 198 207 202 193 185 179 180 180 178 183 185 183 183 182 181 178 182 181 172 171 170 172 181 175 180 202 216 238 253 270 279 290 292 298 296 288 289 285 281
199 192 202 199 202 207 207 193 185 187 182 183 186 186 183 180 180 178 176 171 171 165 166 174 173 186 184 182 192 203 218 231 249 265 285 294 293 299 293 299 301 299 300
196 206 211 212 209 204 196 192 181 186 188 184 180 181 176 177 178 173 169 167 167 165 168 175 181 179 197 198 182 192 222 237 256 275 289 294 300 310 307 305 300 307 301
238 236 227 211 199 198 190 185 182 183 183 180 182 177 172 178 181 176 163 164 165 166 170 175 172 177 209 223 236 240 221 208 239 263 281 290 299 297 302 304 301 305 303
236 234 219 203 203 199 190 177 180 180 175 183 181 176 177 171 178 176 168 159 162 170 169 170 170 179 183 206 232 243 257 276 279 287 285 286 296 301 302 298 294 287 288
275 244 210 201 203 191 176 182 177 178 182 179 175 173 168 174 177 175 168 158 161 168 170 169 166 174 177 192 204 224 240 244 253 263 264 271 275 286 286 292 298 299 292
302 266 178 182 180 176 186 180 173 173 178 179 173 170 169 173 178 176 164 154 160 166 164 168 170 170 195 205 200 217 241 253 267 278 285 291 293 294 300 305 293 296 291
319 295 203 160 166 177 173 168 169 174 175 166 166 173 170 169 180 177 165 157 158 158 165 175 181 181 194 209 187 211 253 267 279 280 280 288 296 291 292 282 284 278 283
324 331 328 348 179 172 150 152 152 156 158 161 161 165 164 173 179 181 169 166 164 160 167 176 188 192 205 215 233 159 197 277 277 309 292 290 288 282 279 270 266 267 275
352 325 298 354 117 153 146 134 149 153 159 156 146 147 163 173 178 184 176 177 170 161 169 167 158 188 204 209 235 273 276 294 357 301 286 280 278 278 279 279 275 270 266
303 265 256 271 214 175 153 146 155 163 170 166 161 153 159 172 190 181 184 176 179 162 155 158 161 192 198 209 219 231 253 150 242 256 269 271 275 283 289 286 281 276 276
273 250 195 209 203 186 172 174 176 174 181 184 171 170 165 165 183 176 185 177 181 159 159 147 144 164 175 181 200 267 260 242 248 262 266 274 285 289 288 290 288 289 288
289 272 227 208 209 200 202 193 191 208 204 192 188 173 168 175 191 180 173 169 152 142 108 76 86 100 122 126 272 266 264 268 267 266 272 281 290 297 295 301 292 294 287
293 287 242 227 212 210 199 210 220 204 207 214 200 184 193 189 177 178 175 163 154 147 102 133 150 152 164 186 230 275 269 264 270 280 277 284 297 300 302 302 292 292 296
282 286 271 219 217 211 197 193 203 215 209 206 201 194 186 177 176 172 172 169 167 144 133 160 157 161 161 167 229 259 285 296 301 287 287 301 298 296 304 295 299 298 302
277 276 266 236 213 205 204 205 192 189 183 194 207 193 183 182 175 171 168 162 151 131 131 162 160 160 164 165 201 251 277 297 287 284 295 299 292 293 298 299 298 307 305
278 278 279 237 212 205 192 190 188 188 189 174 163 176 181 175 173 174 168 156 152 144 155 162 153 159 164 157 200 242 257 274 278 288 292 288 287 292 294 294 302 307 306
272 267 261 246 206 195 189 185 179 186 189 181 170 167 173 171 170 149 137 142 147 144 158 154 163 146 164 168 189 236 253 256 271 276 285 286 284 288 297 299 311 309 306
264 263 262 225 195 190 185 185 182 181 179 178 168 172 171 165 137 136 134 142 154 152 151 154 154 163 169 168 188 220 226 272 267 270 284 287 289 293 292 304 307 306 303
249 253 246 196 185 184 178 176 177 174 169 164 152 173 157 129 129 120 131 135 136 122 123 144 153 180 169 172 202 196 239 263 265 265 281 282 284 290 296 309 312 309 308
236 246 201 173 174 172 171 161 158 156 134 144 156 140 126 126 120 118 122 124 130 140 132 148 162 193 190 201 196 192 233 253 256 269 279 281 286 287 303 311 312 311 311
222 188 163 158 163 159 140 137 131 127 141 147 134 124 124 124 118 117 119 130 134 144 152 155 168 218 230 230 207 211 233 250 254 262 265 271 281 293 301 308 309 310 309
103 117 122 129 127 123 120 119 126 133 136 124 122 116 111 108 107 110 116 136 149 149 141 146 214 248 258 266 265 259 259 271 255 253 270 273 286 290 288 301 306 309 313
78 87 94 99 105 114 122 128 130 130 126 117 110 108 111 109 109 121 138 147 148 146 166 218 248 261 269 263 271 278 283 290 294 284 283 297 287 287 301 305 306 314 318